Location: Dennis Manor
(64.8292°N, 147.5397°W)
Time: 17:43:40
(UTC+00:00)

Envisat - Pass Details

Date: 02 November 2020
Orbit: 764 x 766 km, 98.1° (Epoch: 25 November)

Event Time Altitude Azimuth Distance (km) Brightness Sun altitude
Rises 16:31:09 0° 19° (NNE) 3,249 6.3 -7.6°
Reaches altitude 10° 16:33:28 10° 20° (NNE) 2,319 5.5 -7.4°
Maximum altitude 16:38:36 88° 110° (ESE) 776 3.1 -6.9°
Drops below altitude 10° 16:43:42 10° 201° (SSW) 2,304 5.5 -6.4°
Sets 16:45:59 0° 202° (SSW) 3,227 6.3 -6.2°
